Regional Weather Roundup
Issued by NWS Little Rock, AR

Home | Current Version | Previous Version | Text Only | Print | Product List | Glossary Off
Versions: 1 2 3 4 5 6 7 8 9 10 11 12 13 14 15 16 17 18 19 20 21 22 23 24 25 26 27

000
ASUS44 KLZK 280305
RWRLZK

WEATHER ROUNDUP FOR ARKANSAS
NATIONAL WEATHER SERVICE LITTLE ROCK AR
1000 PM CDT FRI MAY 27 2016

NOTE: "FAIR" INDICATES FEW OR NO CLOUDS BELOW 12,000 FEET WITH NO
SIGNIFICANT WEATHER AND/OR OBSTRUCTIONS TO VISIBILITY.

ARZ001-003-010-029-280400-
NORTHWEST ARKANSAS

CITY           SKY/WX    TMP DP  RH WIND       PRES   REMARKS
FAYETTEVILLE   CLOUDY    67  64  90 S8        29.83R
FORT SMITH     CLOUDY    70  62  76 CALM      29.82R
HARRISON       CLOUDY    68  63  84 S9        29.85R
BENTONVILLE    CLOUDY    68  61  77 S8        29.82R
ROGERS           N/A     68  63  84 SE8       29.83R
SILOAM SPGS    CLOUDY    66  57  72 S7        29.82R
HIGHFILL       MOCLDY    67  64  90 S9        29.81R
$$

ARZ004-005-016-280400-
NORTH CENTRAL ARKANSAS

CITY           SKY/WX    TMP DP  RH WIND       PRES   REMARKS
BATESVILLE     CLOUDY    70  64  83 SE10      29.88R
FLIPPIN        CLOUDY   N/A N/A N/A S6        29.80R
MTN HOME       MOCLDY    69  63  81 S8        29.82R
$$

ARZ040-041-280400-
WEST CENTRAL ARKANSAS

CITY           SKY/WX    TMP DP  RH WIND       PRES   REMARKS
MENA           CLOUDY    66  64  94 CALM      29.89R
MOUNT IDA      CLOUDY    67  64  90 CALM      29.85R
$$

ARZ009-017-025-026-028-280400-
NORTHEAST ARKANSAS

CITY           SKY/WX    TMP DP  RH WIND       PRES   REMARKS
CORNING          N/A     72  72 100 S13       29.88R
JONESBORO      MOCLDY    70  66  87 S13       29.88R
NEWPORT        CLOUDY    70  69  96 S22       29.88R
WALNUT RIDGE   CLOUDY    70  64  83 S15G21    29.87R
BLYTHEVILLE    CLOUDY    71  69  93 S8        29.89R
$$

ARZ022-023-033-042-044-280400-
CENTRAL ARKANSAS

CITY           SKY/WX    TMP DP  RH WIND       PRES   REMARKS
LITTLE ROCK    CLOUDY    72  68  87 SE3       29.86R
N LITTLE ROCK    N/A     70  68  92 SE6       29.84R
JACKSONVILLE   MOCLDY    72  70  94 E5        29.86R
SEARCY         MOCLDY    70  70 100 SE10      29.88R
HOT SPRINGS    CLOUDY    68  64  87 E3        29.87R
RUSSELLVILLE   CLOUDY    70  65  84 SE3       29.86R
CLINTON        FAIR      72  64  78 CALM      29.86R
$$

ARZ036-280400-
EAST ARKANSAS

CITY           SKY/WX    TMP DP  RH WIND       PRES   REMARKS
WEST MEMPHIS   PTCLDY    67  65  93 S8        29.88F
$$

ARZ050-053-066-070-073-280400-
SOUTHWEST ARKANSAS

CITY           SKY/WX    TMP DP  RH WIND       PRES   REMARKS
ARKADELPHIA    FAIR      68  67  96 CALM      29.87R
CAMDEN         CLOUDY    68  63  83 CALM      29.86R
TEXARKANA      MOCLDY    65  63  93 NE3       29.84R
EL DORADO      LGT RAIN  67  65  93 W15G25    29.83R
DE QUEEN       CLOUDY    67  66  97 E3        29.85R
$$

ARZ056-057-069-280400-
SOUTHEAST ARKANSAS

CITY           SKY/WX    TMP DP  RH WIND       PRES   REMARKS
PINE BLUFF     CLOUDY    69  64  84 S8        29.87R
STUTTGART      CLOUDY    72  63  73 SE10      29.87R
MONTICELLO     CLOUDY    68  64  87 SE13      29.82F

$$






USA.gov is the U.S. government's official web portal to all federal, state and local government web resources and services.